Regional Weather Roundup
Issued by NWS

Home | Current Version | Previous Version | Graphics & Text | Print | Product List | Glossary On
Versions: 1 2 3 4 5 6 7 8 9 10 11 12 13 14 15 16 17 18 19 20 21 22 23 24 25 26 27 28 29 30 31 32 33 34 35 36 37 38 39 40 41 42 43 44 45 46 47 48 49 50
000
ASUS43 KOAX 251410
RWRNE

WEATHER ROUNDUP FOR NEBRASKA
NATIONAL WEATHER SERVICE OMAHA NE
900 AM CDT SAT APR 25 2015

NOTES: SATELLITE DATA IS BEING USED TO AUGMENT CLOUD COVER ABOVE
       12000 FEET.
       "FAIR" INDICATES FEW OR NO CLOUDS BELOW 12,000 FEET WITH NO
       SIGNIFICANT WEATHER AND/OR OBSTRUCTIONS TO VISIBILITY.

  * THESE STATIONS DO NOT REPORT WEATHER SUCH AS RAIN...SNOW OR FOG.

NEZ001>004-019>022-054>056-251500-
NEBRASKA PANHANDLE

CITY           SKY/WX    TMP DP  RH WIND       PRES   REMARKS
SCOTTSBLUFF    SUNNY     49  32  52 NW6       29.71R
ALLIANCE       SUNNY     45  42  89 W5        29.69S
CHADRON        SUNNY     44  41  89 CALM      29.69F
KIMBALL        SUNNY     50  38  63 NW6       29.71R
SIDNEY         SUNNY     49  42  77 NW9       29.72R
$$

NEZ057>060-069>072-079>082-251500-
SOUTHWEST NEBRASKA

CITY           SKY/WX    TMP DP  RH WIND       PRES   REMARKS
IMPERIAL       MOSUNNY   52  44  74 N13       29.68R
LEXINGTON      CLOUDY    56  52  87 N8        29.64R
MCCOOK         MOSUNNY   55  49  80 NW5       29.64R
OGALLALA       MOSUNNY   51  46  82 NW15      29.68R
$$

NEZ005>010-023>029-035>040-094-251500-
NORTH CENTRAL NEBRASKA

CITY           SKY/WX    TMP DP  RH WIND       PRES   REMARKS
VALENTINE      CLOUDY    48  47  96 NE10      29.68R FOG
AINSWORTH      PTSUNNY   51  50  95 E8        29.67S
BROKEN BOW     CLOUDY    54  49  83 N16       29.64R
O`NEILL        CLOUDY    51  50  98 NE9       29.67R FOG
ORD            CLOUDY    53  50  89 N14       29.62R FOG
THEDFORD       CLOUDY    52  49  90 NE6       29.68R
$$

NEZ041-046>049-061>064-073>077-083>087-251500-
SOUTH CENTRAL NEBRASKA

CITY           SKY/WX    TMP DP  RH WIND       PRES   REMARKS
GRAND ISLAND   CLOUDY    51  50  96 N14       29.60R
AURORA         DRIZZLE   51  51 100 NE20      29.58R
HASTINGS       CLOUDY    53  52  96 N16       29.57R
HEBRON         CLOUDY    54  52  93 N14G20    29.53R
HOLDREGE       MOSUNNY   54  52  92 N13       29.60R
KEARNEY *      CLOUDY    54  52  94 N14       29.60R
YORK           LGT RAIN  50  48  93 NE17      29.57R
$$

NEZ011>018-030>034-042>045-251500-
NORTHEAST NEBRASKA

CITY           SKY/WX    TMP DP  RH WIND       PRES   REMARKS
NORFOLK        CLOUDY    47  45  93 NE13G20   29.62R
ALBION         RAIN      48  46  93 NE14      29.62R
BLAIR          LGT RAIN  47  45  92 NE13      29.56R
COLUMBUS *     CLOUDY    48  43  81 NE16      29.61R
FREMONT        CLOUDY    49  47  92 NE13      29.58R FOG
TEKAMAH        LGT RAIN  48  45  89 NE15      29.60R FOG
WAYNE          CLOUDY    46  44  93 NE22      29.64R FOG
$$

NEZ050>053-065>068-078-088>093-251500-
SOUTHEAST NEBRASKA

CITY           SKY/WX    TMP DP  RH WIND       PRES   REMARKS
LINCOLN        CLOUDY    50  49  96 N21       29.55R FOG
OMAHA EPPLEY   LGT RAIN  49  46  90 NE13      29.57R FOG
BEATRICE       CLOUDY    54  53  95 N15G22    29.50R
FALLS CITY     LGT RAIN  57  55  93 E12       29.43R FOG
NEBRASKA CITY  CLOUDY    53  53  99 NE15G21   29.49R FOG
PLATTSMOUTH    LGT RAIN  50  48  93 N13       29.53R
$$

NEZ044-045-051>053-067-251500-
OMAHA AREA

CITY           SKY/WX    TMP DP  RH WIND       PRES   REMARKS
OMAHA EPPLEY   LGT RAIN  49  46  90 NE13      29.57R FOG
BLAIR          LGT RAIN  47  45  92 NE13      29.56R
FREMONT        CLOUDY    49  47  92 NE13      29.58R FOG
MILLARD        DRIZZLE   49  47  92 NE7       29.55R
OFFUTT AFB     CLOUDY    50  48  93 NE12      29.54R
PLATTSMOUTH    LGT RAIN  50  48  93 N13       29.53R
WAHOO          LGT RAIN  49  46  89 NE15      29.56R
$$


USA.gov is the U.S. government's official web portal to all federal, state and local government web resources and services.